Regional Weather Roundup
Issued by NWS

Home | Current Version | Previous Version | Graphics & Text | Print | Product List | Glossary On
Versions: 1 2 3 4 5 6 7 8 9 10 11 12 13 14 15 16 17 18 19 20 21 22 23 24 25 26 27 28
000
ASUS45 KGTF 241210
RWRMT
MONTANA HOURLY WEATHER ROUNDUP
NATIONAL WEATHER SERVICE GREAT FALLS MT
600 AM MDT FRI APR 24 2015

NOTE: "FAIR" INDICATES FEW OR NO CLOUDS BELOW 12000 FEET WITH NO
SIGNIFICANT WEATHER AND/OR OBSTRUCTIONS TO VISIBILITY.

MTZ001>007-043-241300-
WEST OF THE DIVIDE

CITY           SKY/WX    TMP DP  RH WIND       PRES   REMARKS
KALISPELL      LGT RAIN  43  34  70 S6        29.68R
MISSOULA       CLOUDY    44  35  70 N3        29.69S
BUTTE          MOCLDY    33  25  72 SE6       29.65F WCI  28
DEER LODGE       N/A     36  28  75 CALM      29.70R
EUREKA           N/A     41  34  75 S3        29.67S
HAMILTON         N/A     43  36  75 W3        29.68S
LIBBY            N/A     39  36  87 CALM      29.69R
$$

MTZ008-052>055-241300-
SOUTHWEST MONTANA

CITY           SKY/WX    TMP DP  RH WIND       PRES   REMARKS
BOZEMAN        MOCLDY    36  32  85 CALM      29.64R
DILLON         CLOUDY    43  20  39 S7        29.63S
$$

MTZ009-010-012-014-046-048-049-054-241300-
EAST SLOPES AND CENTRAL MONTANA

CITY           SKY/WX    TMP DP  RH WIND       PRES   REMARKS
CUT BANK       CLOUDY    42  30  62 W12       29.63S
GREAT FALLS    CLOUDY    46  27  47 CALM      29.62S
MALMSTROM AFB  MOCLDY    41  33  71 S2        29.63R
HELENA         PTCLDY    44  29  55 SW5       29.63R
$$

MTZ011-013-016-021-045-047-050-051-241300-
NORTH CENTRAL MONTANA

CITY           SKY/WX    TMP DP  RH WIND       PRES   REMARKS
HAVRE          PTCLDY    35  30  82 S8        29.60S WCI  29
LEWISTOWN      CLOUDY    39  34  82 S5        29.63S
CHINOOK          N/A     34  34 100 CALM      29.61S
FORT BENTON      N/A     39  28  65 S3        29.63S
$$

MTZ017>020-022>042-056>058-061-062-241300-
EASTERN PLAINS

CITY           SKY/WX    TMP DP  RH WIND       PRES   REMARKS
BAKER          CLEAR     30  26  85 CALM      29.63S
BILLINGS       MOCLDY    45  41  86 SW7       29.61F
GLASGOW        PTCLDY    33  30  88 E7        29.62R WCI  27
JORDAN           N/A     34  30  85 CALM      29.60S
LIVINGSTON     PTCLDY    41  34  76 VRB3      29.63F
MILES CITY     PTCLDY    36  30  79 E5        29.61F
SIDNEY         CLEAR     28  25  86 NW6       29.66S WCI  22
WOLF POINT     MOCLDY    32  28  85 E7        29.65S FOG     WCI  26
FORSYTH          N/A     37  36  93 CALM      29.60F
POPLAR           N/A     30  28  93 N3        29.66S
$$

REGIONAL REPORTS...DAKOTAS

CITY           SKY/WX    TMP DP  RH WIND       PRES   REMARKS
WILLISTON      CLEAR     31  23  72 NE3       29.68S
MINOT          CLEAR     31  24  75 E7        29.72S WCI  24
DICKINSON      CLEAR     30  21  69 NE5       29.62S
BEACH          FAIR      27  27 100 SW5       29.64S
CROSBY         FAIR      30  23  74 SE5       29.71R
WATFORD CITY   FAIR      27  25  93 E5        29.66R
BISMARCK       CLEAR     33  27  78 NE9       29.67S WCI  25
GRAND FORKS    MOCLDY    40  32  73 E13       29.81F
FARGO          LGT RAIN  42  35  76 SE20G29   29.76F
BUFFALO SD       N/A     38  32  79 NW3       29.57R
RAPID CITY     MOCLDY    44  38  79 N8        29.60R
$$

REGIONAL REPORTS...WYOMING/IDAHO/WASHINGTON

CITY           SKY/WX    TMP DP  RH WIND       PRES   REMARKS
GILLETTE       MOCLDY    45  40  82 SE5       29.64S
SHERIDAN       FOG       33  33 100 CALM      29.63R VSB 1/4
BUFFALO WY     CLEAR     42  31  64 W7        29.65R
CODY           CLEAR     45  25  45 SW10      29.66S
YELLOWSTONE LA   N/A     23  20  88 CALM      29.79S
IDAHO FALLS    PTCLDY    38  32  79 SW5       29.69S
SALMON         CLOUDY    46  36  66 E3        29.61R
BOISE          CLOUDY    47  42  83 NW16      29.73R
SPOKANE        MOCLDY    39  34  82 SW15      29.70R WCI  31
$$

REGIONAL REPORTS...ALBERTA

CITY           SKY/WX    TMP DP  RH WIND       PRES   REMARKS
EDMONTON       CLOUDY    32  32 100 N5        29.70S
CALGARY        MOCLDY    34  28  80 N14       29.63F WCI  24
LETHBRIDGE     MOCLDY    39  28  65 W20       29.60S WCI  30
MEDICINE HAT   CLEAR     37  32  81 W5        29.59S
$$

REGIONAL REPORTS...SASKATCHEWAN

CITY           SKY/WX    TMP DP  RH WIND       PRES   REMARKS
SWIFT CURRENT  CLOUDY    43  36  75 S10       29.59F
REGINA         MOCLDY    32  28  86 SE13      29.69S WCI  22
SASKATOON      MOCLDY    34  34 100 NE8       29.68S WCI  27
$$



USA.gov is the U.S. government's official web portal to all federal, state and local government web resources and services.